This is the latest recevied weather packets stored in our database for station/object HB9FHL-13. If no packets are shown the sender has not sent any weather packets the latest 10 day(s).
| Time | Temp. | Humidity | Pressure | Rain* | Wind** | Luminosity | Snow |
|---|---|---|---|---|---|---|---|
| 1777225366 | 17.22° C | - | 1022.5 hPa | 0 mm | - | - | - |
| 1777225063 | 16.67° C | - | 1012.6 hPa | 0 mm | - | - | - |
| 1777224759 | 17.22° C | - | 1016.9 hPa | 0 mm | - | - | - |
| 1777224458 | 17.22° C | - | 1020.8 hPa | 0 mm | - | - | - |
| 1777224158 | 17.22° C | - | 1021.4 hPa | 0 mm | - | - | - |
| 1777223856 | 17.78° C | - | 1020.5 hPa | 0 mm | - | - | - |
| 1777223253 | 17.22° C | - | 1015.3 hPa | 0 mm | - | - | - |
| 1777222952 | 17.22° C | - | 1015.3 hPa | 0 mm | - | - | - |
| 1777222649 | 17.22° C | - | 1017.7 hPa | 0 mm | - | - | - |
| 1777222348 | 16.67° C | - | 1019.7 hPa | 0 mm | - | - | - |
| 1777222047 | 17.22° C | - | 1019.5 hPa | 0 mm | - | - | - |
| 1777221742 | 17.78° C | - | 1013.9 hPa | 0 mm | - | - | - |
| 1777221442 | 17.78° C | - | 1021.2 hPa | 0 mm | - | - | - |
| 1777221139 | 18.33° C | - | 1019.7 hPa | 0 mm | - | - | - |
| 1777220839 | 17.78° C | - | 1016.7 hPa | 0 mm | - | - | - |
| 1777220538 | 17.22° C | - | 1020.3 hPa | 0 mm | - | - | - |
| 1777220239 | 17.78° C | - | 1024.2 hPa | 0 mm | - | - | - |
| 1777219937 | 17.78° C | - | 1018.8 hPa | 0 mm | - | - | - |
| 1777219636 | 18.33° C | - | 1016.7 hPa | 0 mm | - | - | - |
| 1777219336 | 18.33° C | - | 1017.5 hPa | 0 mm | - | - | - |
| 1777219035 | 18.33° C | - | 1019.6 hPa | 0 mm | - | - | - |
| 1777218735 | 18.33° C | - | 1019.5 hPa | 0 mm | - | - | - |
| 1777218433 | 18.33° C | - | 1023.3 hPa | 0 mm | - | - | - |
| 1777218132 | 17.22° C | - | 1022.3 hPa | 0 mm | - | - | - |
| 1777217832 | 17.78° C | - | 1020.8 hPa | 0 mm | - | - | - |
* Rain since midnight (hover to see other rain measurements)
** Current wind speed in m/s (hover to see current wind gust speed)